Location: The C. Gantt Observatory
(33.6981°N, 81.6836°W)
Time: 03:12:51
(UTC-04:00)

Daily predictions for brighter satellites

Satellite Brightness Start Highest point End
(mag) Time Altitude Azimuth Time Altitude Azimuth Time Altitude Azimuth
ATLAS CENTAUR R/B 4.5 00:29:28 64° N 00:29:28 64° N 00:48:30 10° NE
SL-16 R/B 4.3 03:09:51 24° ENE 03:10:34 24° ENE 03:15:23 10° NNE
Cosmos 2369 Rocket 4.4 03:06:12 10° N 03:08:17 20° NNE 03:08:17 20° NNE
ATLAS 5 CENTAUR R/B 3.6 03:57:08 29° NNE 03:57:08 29° NNE 03:59:39 10° NNE
USA 234 3.3 04:00:02 10° NE 04:06:05 74° N 04:06:05 74° N
Okean O Rocket 3.7 04:07:00 10° NE 04:10:28 22° E 04:10:29 22° E
ARIANE 5 R/B 3.7 04:07:00 10° N 04:10:10 38° N 04:10:10 38° N
Cosmos 2315 Rocket 4.2 04:19:28 61° NNW 04:19:28 61° NNW 04:24:43 10° N
BREEZE-M DEB (TANK) 4.2 04:18:28 52° SE 04:18:30 52° SE 04:30:14 10° NE
CZ-3A R/B 4.1 04:15:04 47° W 04:18:38 64° NNW 05:26:46 10° NE
CZ-2D R/B 2.7 04:18:33 10° N 04:22:21 49° N 04:22:21 49° N
CENTAUR R/B 2.4 04:33:42 69° WNW 04:33:42 69° WNW 04:40:23 10° NNE
ARGOS Delta rocket 3.9 04:39:56 10° NNE 04:43:51 67° NE 04:43:51 67° NE
COSMOS 2406 3.1 04:48:11 72° SW 04:48:45 82° WNW 04:54:32 10° NNE
Resurs 1-4 Rocket 2.9 04:46:00 10° N 04:49:55 37° NW 04:49:55 37° NW
SL-27 R/B 4.5 04:53:36 23° N 04:53:36 23° N 04:55:07 10° N
Cosmos 1933 3.7 04:53:00 63° NNE 04:53:00 63° NNE 04:56:31 10° N
SL-16 R/B 3.0 04:54:57 41° WNW 04:54:57 41° WNW 04:59:43 10° NNW
USA 32 4.5 04:53:57 26° SSE 04:56:51 60° E 05:02:00 10° NNE
Nadezhda 1 Rocket 4.1 04:55:54 26° S 04:59:34 78° E 05:05:55 10° N
ADEOS II 4.0 04:57:15 10° NE 05:01:41 27° E 05:06:05 10° SSE
Atlas Centaur 2 2.4 05:02:13 36° SSE 05:02:13 36° SSE 05:06:18 10° E
CZ-4B R/B 3.3 04:58:05 10° NNE 05:03:23 71° ESE 05:06:07 29° S
CZ-4B R/B 3.1 05:01:03 10° NNE 05:04:44 60° E 05:05:21 51° SE
BREEZE-M DEB (TANK) 4.5 05:01:15 14° NW 05:04:55 63° NE 05:16:14 10° ESE
CZ-4B DEB 4.4 05:00:17 10° NNE 05:05:44 68° ESE 05:09:10 23° S
Cosmos 1943 Rocket 2.2 05:04:51 10° NNW 05:10:23 56° WSW 05:15:51 10° S
CZ-2C R/B 3.6 05:07:50 12° SSE 05:11:52 81° ENE 05:16:18 10° N
Cosmos 1408 2.5 05:08:29 10° N 05:12:15 90° NE 05:12:29 79° S
Cosmos 1782 Rocket 4.0 05:11:52 10° N 05:16:10 61° E 05:20:26 10° SSE
AVUM R/B 3.1 05:20:29 81° NNE 05:20:29 81° NNE 05:23:38 10° NNE
IRS-1C Rocket 4.2 05:17:05 10° N 05:22:14 56° WNW 05:24:08 36° SW
PSLV R/B 4.4 05:22:41 10° N 05:26:00 38° WNW 05:26:00 38° WNW
Cosmos 2074 Rocket 4.1 05:24:14 10° NNW 05:30:14 51° W 05:36:14 10° SSW
Cosmos 407 Rocket 3.4 05:27:56 27° SSW 05:30:49 75° WNW 05:36:06 10° NNE
SL-08 ROCKET BODY 4.5 05:26:18 10° NNW 05:32:12 55° W 05:38:09 10° SSW
Cosmos 1825 2.4 05:29:00 10° NNW 05:32:37 44° W 05:32:45 43° W
Cosmos 2154 Rocket 4.1 05:29:19 10° N 05:35:41 81° E 05:42:02 10° S
Cosmos 1908 Rocket 4.0 05:32:18 10° NNW 05:36:22 39° W 05:37:33 32° SW
Cosmos 2184 Rocket 4.2 05:30:34 10° NNW 05:36:38 48° W 05:42:39 10° SSW
Cosmos 1656 Rocket 3.5 05:32:08 10° NNW 05:37:33 73° WSW 05:42:55 10° SSE
SeaSat 1 2.4 05:34:14 10° SSE 05:39:06 64° WSW 05:44:00 10° NNW
Cosmos 2221 Rocket 4.2 05:43:50 28° WSW 05:45:13 34° W 05:49:15 10° NNW
MOZ.5/SAFIR/RUBIN 5/SL-8 4.3 05:43:15 17° SSW 05:46:20 35° W 05:50:36 10° NNW
Okean O Rocket 2.7 05:43:01 10° NNW 05:46:46 27° WNW 05:47:57 24° W
Meteor 1-31 Rocket 4.3 05:44:05 10° NNE 05:47:38 37° E 05:51:10 10° SSE
Cosmos 1140 Rocket 4.1 05:42:43 10° S 05:47:41 55° ESE 05:52:42 10° NNE
GPS 2-05 Rocket1 2.7 05:49:11 30° W 05:50:43 75° N 05:54:01 10° ENE
Okean-O 2.5 05:51:27 10° N 05:55:53 73° WNW 06:00:16 10° SSW
Geosat 4.0 05:55:04 10° NNE 06:00:03 67° WNW 06:05:01 10° SW
Cosmos 2341 Rocket 4.0 05:53:45 10° N 06:00:05 82° W 06:06:26 10° S
USA 116 4.3 06:00:01 10° S 06:04:44 84° W 06:09:57 10° NNW
PSLV R/B 4.0 06:06:39 10° N 06:10:46 41° WNW 06:14:53 10° SW
Abrixas rocket 4.3 06:07:53 10° NNW 06:10:50 28° NNE 06:13:47 10° E
CZ-4B R/B 4.3 06:06:30 10° NNE 06:11:01 77° ESE 06:15:23 10° S
Cosmos 962 Rocket 4.5 06:05:52 10° NNW 06:12:06 66° W 06:18:14 10° S
Cosmos 2151 Rocket 3.5 06:09:15 10° N 06:13:40 83° W 06:18:03 10° S
COSMOS 2487 4.2 06:12:41 14° W 06:14:14 18° WNW 06:16:46 10° NNW
ADEOS Rocket 3.7 06:08:22 10° N 06:15:57 57° WNW 06:23:20 10° SSW
NOAA 6 4.3 06:14:39 10° NNE 06:19:50 77° ESE 06:24:59 10° S
Okean 1-7 4.5 06:17:43 11° WSW 06:20:29 19° WNW 06:23:38 10° NNW
PSLV R/B 3.4 06:17:42 10° WNW 06:21:08 76° NNE 06:24:31 10° ESE
EXPRESS MD2 3.1 06:20:01 10° SW 06:22:31 64° SE 06:26:51 10° NE
COBE Rocket 4.2 06:18:18 10° NNE 06:23:28 79° E 06:28:31 10° S
Feng Yun 1-1 Rocket 4.5 06:19:04 10° N 06:24:12 47° WNW 06:29:24 10° SW
Meteor 2-13 Rocket 4.5 06:18:54 10° NNW 06:24:48 57° W 06:30:42 10° S
Cosmos 2278 4.1 06:19:45 10° NNW 06:25:29 72° ENE 06:31:10 10° SSE
CENTAUR R/B 4.4 06:22:45 10° WNW 06:25:48 13° NW 06:28:59 10° N
Thor Agena Rocket 4.4 06:24:12 10° SSW 06:28:31 27° W 06:32:54 10° NW
Cosmos 1242 Rocket 4.0 06:25:08 10° SSE 06:28:36 42° E 06:32:08 10° NNE
Cosmos 2218 Rocket 4.1 06:23:40 10° N 06:29:49 83° E 06:35:59 10° S
CZ-3 R/B 4.1 06:03:15 10° WNW 06:31:58 33° SW 06:40:27 10° SSE
BREEZE-M DEB (TANK) 4.2 06:14:09 10° NW 06:33:40 67° SW 06:38:19 10° SE
Meteor 2-10 Rocket 4.3 06:31:14 10° SW 06:36:37 39° WNW 06:41:56 10° N
